NOAA 16 DEB

Satellite information

Favourite Embed

Satellite Type and Status

DEBRISIN ORBIT

Key statistics

Satellite NOAA 16 DEB at a glance.

Uptime

9055

Days in orbit

Revolutions

≈ 15.3

Per day

Orbit

SSO

Sun Synchronous Orbit

Inclination

98.9

Latest

Satellite identification and parameters

Extended collection of information and parameters for NOAA 16 DEB.

Object identification

Identified? True

Debris? True

Object name: NOAA 16 DEB

International designator: 2000-055EW

Object number (NORAD): 41246

Object ID (CCSDS): 41246

Country: UNITED STATES OF AMERICA (US)

Current information (Y/N): Y

RCS size: SMALL

Orbital parameters

Period: 94.242 minutes

Inclination: 98.9295 deg

SMA: 6860.008 km

Apoapsis: 491.243 km

Periapsis: 472.504 km

RAAN: 94.2995 deg

Eccentricy: 0.0013658

Argument of periapsis: 162.5682 deg

Mean anomaly: 197.6024 deg

Mean motion: 15.27973382 rev/day

Mean motion (dot): 0.00227097 rev/day2

B* drag term: 0.0080621 1/REarth

Two-line elements (TLE)

Creation date: July 6, 2025, 10:26 p.m.

Reference frame: TEME

Reference center: EARTH

Epoch: July 6, 2025, 4:24 p.m. UTC

TLE line 0: 0 NOAA 16 DEB

TLE line 1: 1 41246U 00055EW 25187.68382562 .00227097 00000-0 80621-2 0 9996

TLE line 2: 2 41246 98.9295 94.2995 0013658 162.5682 197.6024 15.27973382498661

Live tracking on map

Real-time ground track for satellite NOAA 16 DEB.

In-orbit conjunctions

A list of the most updated potential collisions computed for object NOAA 16 DEB.

Target Orbit TCA Probability of collision Miss distance Type
OBJECT C LEO 2025-02-13 22:50:37 0.0001079216 838.0 (m) UNKNOWN
CZ-6A DEB LEO 2024-10-23 02:08:05 0.0001142059 291.0 (m) DEBRIS

Associated space launch

The NOAA K, L and M POES satellites begin the fifth generation of improved environmental monitoring in support of NOAA missions. The instrument payload has significant improvements and additions/deletions. The instrument changes have effected the spacecraft subsystems and data formats.

NOAA 16 DEB was lifted into orbit during the mission ‘Titan II SLV | NOAA 16’, on board a Titan II SLV space rocket.

The launch took place on Sept. 21, 2000, 10:22 a.m. from Space Launch Complex 4W.

For more information about the launch, click the button.

Launch to space Titan II SLV | NOAA 16
Titan II SLV | NOAA 16

Agency: N/A

Status: Launch Successful

Launch date: Sept. 21, 2000, 10:22 a.m. UTC

Rocket: Titan II SLV

Launch pad: Space Launch Complex 4W

Location: Vandenberg SFB, CA, USA

...

Latest news about this satellite

There are no fresh news available about this satellite. Check back as we update our databases every day.


Newsletter sign-up

Weekly statistics, charts and insights to help you stay on top of the space industry.